Retour au catalogue

SL-14 R/B

ActifPO
NORAD 27061·ROCKET BODY·🇷🇺 Russia

Lancé Dec 28, 2001 depuis Plesetsk Cosmodrome

Loading…

Prochains Passages (prochaines 24 heures)

TLE

FraisSource: Space-Track

Époque: Sep 14, 2026, 09:33 UTC

1 27061U 01058G   26257.39847618  .00000000  00000-0 -59903-4 0  9999
2 27061  82.5407 238.0054 0042306 275.7036 239.8286 12.53957699131202

Suivez SL-14 R/B en temps réel avec AllMySat

Download on the App Store